Tracking 19219 objects as of 20-Jul-2018
HD Live streaming from Space Station
objects crossing your sky now

LEMUR 2 ANDIS

Track LEMUR 2 ANDIS now!
10-day predictions
LEMUR 2 ANDIS is classified as:


NORAD ID: 42838
Int'l Code: 2017-042P
Perigee: 589.8 km
Apogee: 610.7 km
Inclination: 97.6 °
Period: 96.5 minutes
Semi major axis: 6971 km
RCS: Unknown
Launch date: July 14, 2017
Source: United States (US)
Launch site: TYURATAM MISSILE AND SPACE COMPLEX (TTMTR)
aabbcc
Your satellite tracking list
Your tracking list is empty




NASA's NSSDC Master Catalog

Two Line Element Set (TLE):
1 42838U 17042P   18201.25169710 +.00000342 +00000-0 +39455-4 0  9991
2 42838 097.5946 102.6789 0014999 087.0919 273.2017 14.91536881055284
Source of the keplerian elements: AFSPC